Regional Weather Roundup
Issued by NWS Little Rock, AR

Home | Current Version | Previous Version | Text Only | Print | Product List | Glossary On
Versions: 1 2 3 4 5 6 7 8 9 10 11 12 13 14 15 16 17 18 19 20 21 22 23 24 25 26 27 28 29 30 31 32 33 34 35 36 37 38 39 40 41 42 43 44 45 46 47 48 49 50
000
ASUS44 KLZK 280005
RWRLZK

WEATHER ROUNDUP FOR ARKANSAS
NATIONAL WEATHER SERVICE LITTLE ROCK AR
700 PM CDT THU AUG 27 2015

NOTE: "FAIR" INDICATES FEW OR NO CLOUDS BELOW 12,000 FEET WITH NO
SIGNIFICANT WEATHER AND/OR OBSTRUCTIONS TO VISIBILITY.

ARZ001-003-010-029-280100-
NORTHWEST ARKANSAS

CITY           SKY/WX    TMP DP  RH WIND       PRES   REMARKS
FAYETTEVILLE   FAIR      75  67  76 S9        30.06F
6HR MIN TEMP:  71; 6HR MAX TEMP:  80;

FORT SMITH     FAIR      79  64  60 E8        30.03F
6HR MIN TEMP:  74; 6HR MAX TEMP:  81;

BENTONVILLE    FAIR      77  64  65 SE5       30.06F
6HR MIN TEMP:  72; 6HR MAX TEMP:  82;

ROGERS         FAIR      77  67  71 E6        30.06F
6HR MIN TEMP:  73; 6HR MAX TEMP:  80;

SILOAM SPGS    FAIR      73  61  64 S10       30.04F
6HR MIN TEMP:  70; 6HR MAX TEMP:  81;

HIGHFILL       FAIR      78  67  68 SE6       30.05F
6HR MIN TEMP:  71; 6HR MAX TEMP:  82;

SPRINGDALE     PTCLDY    81  64  57 SE5       30.08F
$$

ARZ004-005-016-280100-
NORTH CENTRAL ARKANSAS

CITY           SKY/WX    TMP DP  RH WIND       PRES   REMARKS
BATESVILLE     FAIR      75  59  57 E7        30.07R
6HR MIN TEMP:  75; 6HR MAX TEMP:  82;

FLIPPIN        FAIR      75  61  60 E5        30.06F
6HR MIN TEMP:  75; 6HR MAX TEMP:  82;

MTN HOME       FAIR      73  63  70 SE3       30.07F
6HR MIN TEMP:  73; 6HR MAX TEMP:  80;

$$

ARZ040-041-280100-
WEST CENTRAL ARKANSAS

CITY           SKY/WX    TMP DP  RH WIND       PRES   REMARKS
MENA           FAIR      81  66  61 E3        30.06S
MOUNT IDA      FAIR      77  65  66 CALM      30.03F
6HR MIN TEMP:  77; 6HR MAX TEMP:  84;

$$

ARZ009-017-025-026-028-280100-
NORTHEAST ARKANSAS

CITY           SKY/WX    TMP DP  RH WIND       PRES   REMARKS
JONESBORO      FAIR      71  63  75 E5        30.06S
6HR MIN TEMP:  71; 6HR MAX TEMP:  80;

NEWPORT        FAIR      74  65  73 E5        30.07F
6HR MIN TEMP:  74; 6HR MAX TEMP:  81;

WALNUT RIDGE   FAIR      73  59  60 NE6       30.07F
6HR MIN TEMP:  73; 6HR MAX TEMP:  81;

BLYTHEVILLE    FAIR      75  63  66 N7        30.06S
6HR MIN TEMP:  75; 6HR MAX TEMP:  84;

$$

ARZ022-023-033-042-044-280100-
CENTRAL ARKANSAS

CITY           SKY/WX    TMP DP  RH WIND       PRES   REMARKS
LITTLE ROCK    MOCLDY    80  57  45 E13       30.04S
6HR MIN TEMP:  80; 6HR MAX TEMP:  88;

N LITTLE ROCK  MOCLDY    78  62  57 E10       30.04S
6HR MIN TEMP:  78; 6HR MAX TEMP:  85;

JACKSONVILLE   FAIR      78  60  54 E8        30.04F
6HR MIN TEMP:  78; 6HR MAX TEMP:  85;

SEARCY         FAIR      76  61  59 E6        30.06F
6HR MIN TEMP:  76; 6HR MAX TEMP:  84;

HOT SPRINGS    FAIR      81  62  52 E6        30.04S
6HR MIN TEMP:  80; 6HR MAX TEMP:  84;

RUSSELLVILLE   FAIR      79  64  60 CALM      30.03F
6HR MIN TEMP:  79; 6HR MAX TEMP:  82;

$$

ARZ036-280100-
EAST ARKANSAS

CITY           SKY/WX    TMP DP  RH WIND       PRES   REMARKS
WEST MEMPHIS   FAIR      76  60  57 N6        30.04F
6HR MIN TEMP:  76; 6HR MAX TEMP:  83;

$$

ARZ050-053-066-070-073-280100-
SOUTHWEST ARKANSAS

CITY           SKY/WX    TMP DP  RH WIND       PRES   REMARKS
ARKADELPHIA    FAIR      83  64  52 E3        30.03S
6HR MIN TEMP:  83; 6HR MAX TEMP:  87;

CAMDEN         FAIR      81  61  50 NE5       30.02F
TEXARKANA      FAIR      81  63  54 NE5       30.03S
6HR MIN TEMP:  81; 6HR MAX TEMP:  87;

EL DORADO      FAIR      80  63  55 N5        30.03F
6HR MIN TEMP:  80; 6HR MAX TEMP:  86;

DE QUEEN       FAIR      82  64  54 SE5       30.01F
6HR MIN TEMP:  81; 6HR MAX TEMP:  84;

$$

ARZ056-057-069-280100-
SOUTHEAST ARKANSAS

CITY           SKY/WX    TMP DP  RH WIND       PRES   REMARKS
PINE BLUFF     FAIR      77  60  55 NE8       30.04F
6HR MIN TEMP:  77; 6HR MAX TEMP:  82;

STUTTGART      FAIR      75  59  57 NE6       30.05F
6HR MIN TEMP:  75; 6HR MAX TEMP:  82;

MONTICELLO     FAIR      79  59  50 N3        30.03F
6HR MIN TEMP:  79; 6HR MAX TEMP:  86;


$$




USA.gov is the U.S. government's official web portal to all federal, state and local government web resources and services.